| time (UTC) | temp F | wind direction | speed knots | gust knots | rain 1hr in | rain 24hr in | rain mn in | humidity % | barometer mb |
| 20260503190431 | 60 | 1 | 4.3 | 8.7 | 0.00 | 0.00 | 0.00 | 30 | 1017.6 |
| 20260503185927 | 60 | 40 | 3.5 | 7.8 | 0.00 | 0.00 | 0.00 | 29 | 1017.6 |
| 20260503185424 | 60 | 275 | 3.5 | 7.0 | 0.00 | 0.00 | 0.00 | 27 | 1018.0 |
| 20260503184923 | 60 | 282 | 3.5 | 8.7 | 0.00 | 0.00 | 0.00 | 32 | 1018.1 |
| 20260503184420 | 61 | 19 | 3.5 | 6.1 | 0.00 | 0.00 | 0.00 | 32 | 1018.3 |
| 20260503183916 | 61 | 2 | 4.3 | 7.0 | 0.00 | 0.00 | 0.00 | 35 | 1018.2 |
| 20260503183413 | 61 | 359 | 4.3 | 8.7 | 0.00 | 0.00 | 0.00 | 31 | 1018.4 |
| 20260503182910 | 60 | 315 | 3.5 | 5.2 | 0.00 | 0.00 | 0.00 | 39 | 1018.2 |
| 20260503182409 | 61 | 24 | 7.0 | 8.7 | 0.00 | 0.00 | 0.00 | 30 | 1018.2 |
| 20260503181906 | 60 | 321 | 3.5 | 5.2 | 0.00 | 0.00 | 0.00 | 29 | 1018.1 |
| 20260503181403 | 61 | 337 | 2.6 | 5.2 | 0.00 | 0.00 | 0.00 | 32 | 1018.3 |
| 20260503180859 | 60 | 233 | 1.7 | 6.1 | 0.00 | 0.00 | 0.00 | 29 | 1018.3 |
| 20260503180357 | 60 | 175 | 0.0 | 6.1 | 0.00 | 0.00 | 0.00 | 28 | 1018.4 |
| 20260503175853 | 59 | 275 | 7.0 | 12.2 | 0.00 | 0.00 | 0.00 | 32 | 1018.6 |
| 20260503175351 | 59 | 8 | 0.9 | 3.5 | 0.00 | 0.00 | 0.00 | 27 | 1018.5 |
| 20260503174847 | 58 | 325 | 1.7 | 7.0 | 0.00 | 0.00 | 0.00 | 29 | 1018.4 |
| 20260503174345 | 58 | 280 | 7.8 | 12.2 | 0.00 | 0.00 | 0.00 | 30 | 1018.3 |
| 20260503173845 | 57 | 104 | 1.7 | 2.6 | 0.00 | 0.00 | 0.00 | 32 | 1018.5 |
| 20260503173342 | 58 | 47 | 2.6 | 7.8 | 0.00 | 0.00 | 0.00 | 31 | 1018.7 |
| 20260503172838 | 59 | 302 | 1.7 | 7.8 | 0.00 | 0.00 | 0.00 | 35 | 1018.7 |
| 20260503172336 | 58 | 320 | 2.6 | 5.2 | 0.00 | 0.00 | 0.00 | 37 | 1018.7 |
| 20260503171832 | 58 | 26 | 5.2 | 8.7 | 0.00 | 0.00 | 0.00 | 28 | 1018.6 |
| 20260503171329 | 58 | 307 | 3.5 | 6.1 | 0.00 | 0.00 | 0.00 | 32 | 1018.7 |
| 20260503170826 | 58 | 307 | 3.5 | 7.0 | 0.00 | 0.00 | 0.00 | 33 | 1018.9 |
| 20260503170323 | 58 | 158 | 3.5 | 6.1 | 0.00 | 0.00 | 0.00 | 34 | 1018.9 |
| 20260503150715 | 51 | 291 | 3.5 | 5.2 | 0.00 | 0.00 | 0.00 | 42 | 1020.4 |
| 20260503150211 | 51 | 192 | 5.2 | 7.0 | 0.00 | 0.00 | 0.00 | 41 | 1020.3 |
| 20260503140136 | 49 | 35 | 5.2 | 8.7 | 0.00 | 0.00 | 0.00 | 44 | 1020.5 |
| 20260503131105 | 46 | 3 | 3.5 | 8.7 | 0.00 | 0.00 | 0.00 | 53 | 1020.2 |
| 20260503130602 | 46 | 283 | 4.3 | 7.8 | 0.00 | 0.00 | 0.00 | 51 | 1020.5 |
| 20260503110452 | 31 | 212 | 1.7 | 2.6 | 0.00 | 0.00 | 0.00 | 90 | 1019.6 |
| 20260503090338 | 36 | 2 | 0.0 | 0.0 | 0.00 | 0.00 | 0.00 | 83 | 1018.3 |
| 20260503081306 | 39 | 1 | 0.0 | 0.0 | 0.00 | 0.00 | 0.00 | 80 | 1018.1 |
| 20260503080802 | 39 | 1 | 0.0 | 0.0 | 0.00 | 0.00 | 0.00 | 78 | 1018.2 |
| 20260503080259 | 39 | 1 | 0.0 | 0.0 | 0.00 | 0.00 | 0.00 | 79 | 1017.6 |
| 20260503072736 | 38 | 1 | 0.0 | 0.9 | 0.00 | 0.00 | 0.00 | 80 | 1017.6 |
| 20260503072233 | 38 | 2 | 0.0 | 0.0 | 0.00 | 0.00 | 0.00 | 80 | 1017.6 |
| 20260503071729 | 38 | 2 | 0.0 | 0.0 | 0.00 | 0.00 | 0.00 | 80 | 1017.5 |
| 20260503071226 | 38 | 2 | 0.0 | 0.0 | 0.00 | 0.00 | 0.00 | 79 | 1017.6 |
| 20260503070722 | 38 | 2 | 0.0 | 0.0 | 0.00 | 0.00 | 0.00 | 79 | 1017.5 |
| 20260503070221 | 38 | 352 | 0.0 | 0.9 | 0.00 | 0.00 | 0.00 | 77 | 1017.3 |
| 20260503060145 | 40 | 340 | 0.0 | 0.0 | 0.00 | 0.00 | 0.00 | 73 | 1017.5 |
| 20260503054632 | 40 | 314 | 0.0 | 1.7 | 0.00 | 0.00 | 0.00 | 71 | 1017.4 |
| 20260503054129 | 41 | 310 | 1.7 | 2.6 | 0.00 | 0.00 | 0.00 | 71 | 1017.5 |
| 20260503053627 | 41 | 329 | 1.7 | 2.6 | 0.00 | 0.00 | 0.00 | 70 | 1017.4 |
| 20260503053125 | 41 | 332 | 0.0 | 0.0 | 0.00 | 0.00 | 0.00 | 71 | 1017.4 |
| 20260503052621 | 41 | 21 | 0.9 | 5.2 | 0.00 | 0.00 | 0.00 | 69 | 1017.4 |
| 20260503052118 | 41 | 341 | 0.9 | 1.7 | 0.00 | 0.00 | 0.00 | 70 | 1017.3 |
| 20260503051613 | 41 | 326 | 1.7 | 3.5 | 0.00 | 0.00 | 0.00 | 70 | 1017.4 |
| 20260503051111 | 41 | 333 | 0.0 | 0.0 | 0.00 | 0.00 | 0.00 | 72 | 1017.4 |
| 20260503050607 | 41 | 342 | 0.0 | 0.0 | 0.00 | 0.00 | 0.00 | 72 | 1017.4 |
| 20260503050104 | 40 | 343 | 0.0 | 0.9 | 0.00 | 0.00 | 0.00 | 71 | 1017.5 |
| 20260503045601 | 40 | 326 | 0.0 | 0.9 | 0.00 | 0.00 | 0.00 | 71 | 1017.6 |
| 20260503045059 | 41 | 317 | 0.9 | 1.7 | 0.00 | 0.00 | 0.00 | 71 | 1017.6 |
| 20260503044555 | 42 | 26 | 0.0 | 1.7 | 0.00 | 0.00 | 0.00 | 69 | 1017.5 |
| 20260503044053 | 42 | 332 | 0.9 | 2.6 | 0.00 | 0.00 | 0.00 | 68 | 1017.5 |
| 20260503043549 | 42 | 10 | 0.9 | 1.7 | 0.00 | 0.00 | 0.00 | 68 | 1017.4 |
| 20260503043046 | 42 | 16 | 0.9 | 1.7 | 0.00 | 0.00 | 0.00 | 68 | 1017.3 |
| 20260503042542 | 42 | 358 | 0.0 | 2.6 | 0.00 | 0.00 | 0.00 | 68 | 1017.4 |
| 20260503042038 | 42 | 5 | 0.0 | 2.6 | 0.00 | 0.00 | 0.00 | 67 | 1017.5 |
| 20260503041535 | 43 | 16 | 1.7 | 2.6 | 0.00 | 0.00 | 0.00 | 66 | 1017.3 |
| 20260503041033 | 43 | 6 | 0.9 | 2.6 | 0.00 | 0.00 | 0.00 | 66 | 1017.6 |
| 20260503040530 | 43 | 332 | 2.6 | 3.5 | 0.00 | 0.00 | 0.00 | 66 | 1017.4 |
| 20260503040028 | 44 | 20 | 0.9 | 3.5 | 0.00 | 0.00 | 0.00 | 65 | 1017.5 |
| 20260503035524 | 44 | 23 | 1.7 | 2.6 | 0.00 | 0.00 | 0.00 | 65 | 1017.4 |
| 20260503035022 | 44 | 343 | 2.6 | 7.0 | 0.00 | 0.00 | 0.00 | 65 | 1017.6 |
| 20260503034519 | 44 | 342 | 2.6 | 2.6 | 0.00 | 0.00 | 0.00 | 65 | 1017.5 |
| 20260503034016 | 44 | 12 | 1.7 | 3.5 | 0.00 | 0.00 | 0.00 | 65 | 1017.4 |
| 20260503033513 | 44 | 329 | 1.7 | 3.5 | 0.00 | 0.00 | 0.00 | 65 | 1017.3 |
| 20260503033011 | 44 | 339 | 1.7 | 3.5 | 0.00 | 0.00 | 0.00 | 65 | 1017.5 |
| 20260503032509 | 44 | 22 | 1.7 | 3.5 | 0.00 | 0.00 | 0.00 | 64 | 1017.6 |
| 20260503032007 | 44 | 24 | 3.5 | 6.1 | 0.00 | 0.00 | 0.00 | 65 | 1017.4 |
| 20260503031505 | 44 | 353 | 2.6 | 6.1 | 0.00 | 0.00 | 0.00 | 65 | 1017.4 |
| 20260503031001 | 44 | 319 | 1.7 | 2.6 | 0.00 | 0.00 | 0.00 | 68 | 1017.3 |
| 20260503030457 | 44 | 108 | 1.7 | 1.7 | 0.00 | 0.00 | 0.00 | 69 | 1017.0 |
| 20260503025954 | 44 | 162 | 0.0 | 0.0 | 0.00 | 0.00 | 0.00 | 69 | 1017.5 |
| 20260503025451 | 44 | 134 | 0.0 | 0.9 | 0.00 | 0.00 | 0.00 | 71 | 1017.2 |
| 20260503024949 | 44 | 98 | 0.0 | 0.0 | 0.00 | 0.00 | 0.00 | 68 | 1017.4 |
| 20260503024445 | 44 | 98 | 0.0 | 0.0 | 0.00 | 0.00 | 0.00 | 66 | 1017.5 |
| 20260503023942 | 44 | 101 | 0.0 | 0.0 | 0.00 | 0.00 | 0.00 | 67 | 1017.3 |
| 20260503023439 | 44 | 338 | 0.0 | 0.0 | 0.00 | 0.00 | 0.00 | 65 | 1017.4 |
| 20260503022936 | 44 | 317 | 0.9 | 1.7 | 0.00 | 0.00 | 0.00 | 65 | 1017.3 |
| 20260503022431 | 45 | 358 | 0.0 | 0.0 | 0.00 | 0.00 | 0.00 | 65 | 1017.4 |
| 20260503021927 | 45 | 11 | 0.9 | 1.7 | 0.00 | 0.00 | 0.00 | 63 | 1017.6 |
| 20260503021423 | 45 | 15 | 0.9 | 5.2 | 0.00 | 0.00 | 0.00 | 63 | 1017.4 |
| 20260503020921 | 46 | 350 | 0.9 | 1.7 | 0.00 | 0.00 | 0.00 | 62 | 1017.5 |
| 20260503020419 | 46 | 18 | 2.6 | 5.2 | 0.00 | 0.00 | 0.00 | 61 | 1017.3 |
| 20260503015915 | 46 | 328 | 2.6 | 6.1 | 0.00 | 0.00 | 0.00 | 60 | 1017.1 |
| 20260503015412 | 47 | 36 | 1.7 | 3.5 | 0.00 | 0.00 | 0.00 | 58 | 1017.0 |
| 20260503014908 | 47 | 355 | 3.5 | 6.1 | 0.00 | 0.00 | 0.00 | 57 | 1017.0 |
| 20260503014405 | 47 | 32 | 2.6 | 5.2 | 0.00 | 0.00 | 0.00 | 58 | 1016.9 |
| 20260503013903 | 47 | 13 | 1.7 | 3.5 | 0.00 | 0.00 | 0.00 | 57 | 1017.0 |
| 20260503013400 | 47 | 48 | 2.6 | 7.0 | 0.00 | 0.00 | 0.00 | 56 | 1016.9 |
| 20260503012857 | 47 | 287 | 1.7 | 5.2 | 0.00 | 0.00 | 0.00 | 57 | 1017.0 |
| 20260503012355 | 47 | 24 | 1.7 | 1.7 | 0.00 | 0.00 | 0.00 | 57 | 1016.7 |
| 20260503011851 | 47 | 341 | 1.7 | 2.6 | 0.00 | 0.00 | 0.00 | 56 | 1016.6 |
| 20260503011348 | 47 | 27 | 1.7 | 6.1 | 0.00 | 0.00 | 0.00 | 55 | 1016.6 |
| 20260503010844 | 48 | 34 | 0.0 | 2.6 | 0.00 | 0.00 | 0.00 | 55 | 1016.7 |
| 20260503010342 | 48 | 359 | 1.7 | 7.0 | 0.00 | 0.00 | 0.00 | 53 | 1016.3 |
| 20260503005838 | 48 | 26 | 3.5 | 5.2 | 0.00 | 0.00 | 0.00 | 51 | 1016.3 |
| 20260503005336 | 48 | 18 | 1.7 | 7.0 | 0.00 | 0.00 | 0.00 | 48 | 1016.0 |
| 20260503004832 | 49 | 332 | 2.6 | 3.5 | 0.00 | 0.00 | 0.00 | 47 | 1015.9 |
| 20260503004330 | 49 | 329 | 0.0 | 1.7 | 0.00 | 0.00 | 0.00 | 47 | 1015.7 |
| 20260503003827 | 49 | 325 | 1.7 | 3.5 | 0.00 | 0.00 | 0.00 | 46 | 1015.8 |
| 20260503003324 | 49 | 332 | 0.0 | 0.9 | 0.00 | 0.00 | 0.00 | 47 | 1015.9 |
| 20260503002821 | 50 | 3 | 0.9 | 1.7 | 0.00 | 0.00 | 0.00 | 45 | 1015.6 |
| 20260503002318 | 50 | 333 | 2.6 | 7.0 | 0.00 | 0.00 | 0.00 | 44 | 1015.7 |
| 20260503001814 | 50 | 349 | 1.7 | 2.6 | 0.00 | 0.00 | 0.00 | 46 | 1015.6 |
| 20260503001311 | 50 | 19 | 0.9 | 3.5 | 0.00 | 0.00 | 0.00 | 45 | 1015.6 |
| 20260503000808 | 50 | 31 | 0.9 | 1.7 | 0.00 | 0.00 | 0.00 | 46 | 1015.5 |
| 20260503000306 | 51 | 290 | 0.9 | 1.7 | 0.00 | 0.00 | 0.00 | 44 | 1015.6 |
| 20260502235802 | 51 | 352 | 0.0 | 0.9 | 0.00 | 0.00 | 0.00 | 45 | 1015.3 |
| 20260502235300 | 51 | 278 | 4.3 | 5.2 | 0.00 | 0.00 | 0.00 | 42 | 1015.3 |
| 20260502234756 | 51 | 296 | 0.0 | 0.9 | 0.00 | 0.00 | 0.00 | 43 | 1015.3 |
| 20260502234253 | 51 | 283 | 0.9 | 5.2 | 0.00 | 0.00 | 0.00 | 44 | 1015.0 |
| 20260502233749 | 51 | 318 | 3.5 | 5.2 | 0.00 | 0.00 | 0.00 | 43 | 1015.2 |
| 20260502233241 | 51 | 310 | 0.0 | 0.9 | 0.00 | 0.00 | 0.00 | 47 | 1014.9 |
| 20260502232737 | 51 | 329 | 0.9 | 1.7 | 0.00 | 0.00 | 0.00 | 46 | 1015.0 |
| 20260502232234 | 52 | 325 | 0.9 | 1.7 | 0.00 | 0.00 | 0.00 | 45 | 1015.0 |
| 20260502231731 | 52 | 297 | 0.0 | 2.6 | 0.00 | 0.00 | 0.00 | 44 | 1014.9 |
| 20260502231228 | 52 | 335 | 0.0 | 1.7 | 0.00 | 0.00 | 0.00 | 45 | 1014.9 |
| 20260502230726 | 52 | 327 | 0.9 | 1.7 | 0.00 | 0.00 | 0.00 | 45 | 1014.9 |
| 20260502230219 | 52 | 325 | 2.6 | 2.6 | 0.00 | 0.00 | 0.00 | 42 | 1015.0 |
| 20260502225715 | 52 | 329 | 1.7 | 5.2 | 0.00 | 0.00 | 0.00 | 42 | 1014.7 |
| 20260502225212 | 52 | 316 | 0.9 | 2.6 | 0.00 | 0.00 | 0.00 | 43 | 1015.0 |
| 20260502224708 | 52 | 21 | 0.0 | 2.6 | 0.00 | 0.00 | 0.00 | 42 | 1014.7 |
| 20260502224205 | 53 | 310 | 0.0 | 3.5 | 0.00 | 0.00 | 0.00 | 44 | 1014.9 |
| 20260502223703 | 53 | 321 | 2.6 | 3.5 | 0.00 | 0.00 | 0.00 | 41 | 1014.7 |
| 20260502223201 | 53 | 317 | 0.9 | 2.6 | 0.00 | 0.00 | 0.00 | 41 | 1014.7 |
| 20260502222658 | 53 | 336 | 1.7 | 2.6 | 0.00 | 0.00 | 0.00 | 41 | 1014.6 |
| 20260502222155 | 53 | 323 | 3.5 | 6.1 | 0.00 | 0.00 | 0.00 | 40 | 1014.6 |
| 20260502221650 | 53 | 22 | 1.7 | 5.2 | 0.00 | 0.00 | 0.00 | 39 | 1014.8 |
| 20260502221148 | 53 | 358 | 2.6 | 5.2 | 0.00 | 0.00 | 0.00 | 39 | 1014.5 |
| 20260502220643 | 54 | 28 | 3.5 | 3.5 | 0.00 | 0.00 | 0.00 | 40 | 1014.7 |
| 20260502220140 | 54 | 319 | 1.7 | 3.5 | 0.00 | 0.00 | 0.00 | 39 | 1014.7 |
| 20260502215637 | 54 | 234 | 1.7 | 2.6 | 0.00 | 0.00 | 0.00 | 35 | 1014.5 |
| 20260502215134 | 56 | 307 | 5.2 | 6.1 | 0.00 | 0.00 | 0.00 | 35 | 1014.6 |
| 20260502214631 | 56 | 228 | 3.5 | 7.0 | 0.00 | 0.00 | 0.00 | 36 | 1014.2 |
| 20260502214127 | 54 | 298 | 0.9 | 5.2 | 0.00 | 0.00 | 0.00 | 36 | 1014.6 |
| 20260502213625 | 54 | 342 | 1.7 | 2.6 | 0.00 | 0.00 | 0.00 | 38 | 1014.4 |
| 20260502213122 | 54 | 278 | 1.7 | 2.6 | 0.00 | 0.00 | 0.00 | 36 | 1014.5 |
| 20260502212621 | 54 | 255 | 0.0 | 5.2 | 0.00 | 0.00 | 0.00 | 40 | 1014.5 |
| 20260502212119 | 54 | 296 | 2.6 | 3.5 | 0.00 | 0.00 | 0.00 | 37 | 1014.6 |
| 20260502211614 | 54 | 203 | 5.2 | 6.1 | 0.00 | 0.00 | 0.00 | 37 | 1014.4 |
| 20260502211111 | 55 | 331 | 2.6 | 3.5 | 0.00 | 0.00 | 0.00 | 38 | 1014.6 |
| 20260502210609 | 55 | 284 | 2.6 | 5.2 | 0.00 | 0.00 | 0.00 | 39 | 1014.6 |
| 20260502210105 | 54 | 325 | 1.7 | 6.1 | 0.00 | 0.00 | 0.00 | 38 | 1014.6 |
| 20260502205602 | 55 | 201 | 4.3 | 7.8 | 0.00 | 0.00 | 0.00 | 38 | 1014.6 |
| 20260502205059 | 55 | 266 | 2.6 | 6.1 | 0.00 | 0.00 | 0.00 | 36 | 1014.6 |
| 20260502204555 | 55 | 67 | 0.0 | 3.5 | 0.00 | 0.00 | 0.00 | 42 | 1014.6 |
| 20260502204048 | 54 | 271 | 3.5 | 7.0 | 0.00 | 0.00 | 0.00 | 38 | 1014.5 |
| 20260502203545 | 55 | 208 | 9.6 | 9.6 | 0.00 | 0.00 | 0.00 | 38 | 1014.7 |
| 20260502203042 | 55 | 229 | 5.2 | 6.1 | 0.00 | 0.00 | 0.00 | 39 | 1014.6 |
| 20260502202538 | 55 | 257 | 4.3 | 7.8 | 0.00 | 0.00 | 0.00 | 40 | 1014.6 |
| 20260502202037 | 55 | 300 | 1.7 | 2.6 | 0.00 | 0.00 | 0.00 | 42 | 1014.6 |
| 20260502201532 | 55 | 4 | 2.6 | 5.2 | 0.00 | 0.00 | 0.00 | 39 | 1014.5 |
| 20260502201029 | 55 | 207 | 2.6 | 6.1 | 0.00 | 0.00 | 0.00 | 39 | 1014.8 |
| 20260502200525 | 55 | 253 | 0.0 | 3.5 | 0.00 | 0.00 | 0.00 | 38 | 1014.7 |
| 20260502200023 | 55 | 219 | 2.6 | 2.6 | 0.00 | 0.00 | 0.00 | 40 | 1014.8 |
| 20260502195521 | 55 | 277 | 3.5 | 5.2 | 0.00 | 0.00 | 0.00 | 39 | 1014.7 |
| 20260502195015 | 55 | 306 | 2.6 | 5.2 | 0.00 | 0.00 | 0.00 | 40 | 1014.8 |
| 20260502194512 | 54 | 280 | 5.2 | 7.0 | 0.00 | 0.00 | 0.00 | 38 | 1014.7 |
| 20260502194008 | 55 | 197 | 5.2 | 7.8 | 0.00 | 0.00 | 0.00 | 36 | 1014.9 |
| 20260502193506 | 55 | 214 | 4.3 | 6.1 | 0.00 | 0.00 | 0.00 | 37 | 1015.1 |
| 20260502193001 | 56 | 231 | 3.5 | 5.2 | 0.00 | 0.00 | 0.00 | 37 | 1015.2 |
| 20260502192458 | 55 | 261 | 0.9 | 1.7 | 0.00 | 0.00 | 0.00 | 41 | 1015.0 |
| 20260502191955 | 55 | 318 | 2.6 | 2.6 | 0.00 | 0.00 | 0.00 | 41 | 1015.3 |
| 20260502191452 | 55 | 322 | 0.9 | 7.0 | 0.00 | 0.00 | 0.00 | 47 | 1015.3 |
| 20260502190950 | 54 | 32 | 5.2 | 7.8 | 0.00 | 0.00 | 0.00 | 43 | 1015.4 |